FENGYUN 1C DEB, 30003

Orbit data source: Space-Track

FENGYUN 1C DEB, 30003 is space debris in SSO originally from a launch on Mon, 10 May 1999 UTC launched from the Taiyaun Space Center, China (TSC). Fengyun 1C debris stems from the Chinese weather satellite Fengyun-1C, which was intentionally destroyed by a Chinese anti-satellite missile in 2007. This event dramatically increased the amount of space debris, with thousands of trackable fragments posing hazards to satellites and human spaceflight. The Fengyun 1C debris cloud has become a focal point in discussions about space sustainability and the need for international regulations to prevent the creation of new debris.

Loading next visibility...
Identifier
30003, 1999-025MC
Orbit
SSO
Country
Flag of CNCN / PRC
Related business
Manufacturer
Unknown
Mission
Spacecraft
Bus & Motor
Unknown
Mass
Unknown
Launch date (UTC)
1999-05-10 (27 years ago)
Launch vehicle
Unknown
Launch site
Taiyaun Space Center, China (TSC)
Object type
Payload
Rocket body
Debris
Shape & HBR
Unknown shape, 0.1 m
Radar Cross Section
Medium (>0.1 m² and <1 m²)

Expand to show TLE details & history
Last TLE update: 9 hours ago

TLE from 9 hours ago
0 FENGYUN 1C DEB
1 30003U 99025MC  25349.91208234  .00000387  00000-0  34921-3 0  9993
2 30003  99.5770 324.7806 0143476 111.4703 304.4560 13.85626944955321
Epoch: 2025-12-15T21:53Z
TLE epoch observation values (Epoch: 2025-12-15T21:53:23.914Z)
Latitude
53.55067°
Longitude
-101.50745°
Altitude
894.283 km
Speed
7.44 km/s
True Right ascension
20h 46m 35s
True Declination
53° 23' 21"
Sunlit
Object was in daylight at epoch
Visualization orbit readout
Latitude
Unknown
Longitude
Unknown
Altitude
Unknown
Speed
Unknown
Apparent Right ascension
Unknown
Apparent Declination
Unknown
Sunlit
N/A
Visualization observer readout
Local Sidereal Time
05:08:54
Azimuth
Unknown
Elevation
Unknown
Doppler factor
Unknown
Orbital elements
Apogee altitude
1,046.259 km
Perigee altitude
836.227 km
Semi-major axis
7,319.38 km
Eccentricity
0.01435
Inclination
99.577°
RAAN
324.7806°
Arg. of periapsis
111.4703°
True anomaly
303.08657°
Mean anomaly
304.456°
Eccentric anomaly
303.77267°
Mean motion
3.46603 °/min
Orbital period
103.87 mins
BSTAR
0.00034921
Loading maneuver chart data...
Computing Atmospheric mass density...

Documentation

Showing up to 5 results
|